Ephrata, WA
on Tuesday, January 8, 2013

Tuesday
Previous Day Next Day
Daily Summary
 ActualAverageRecord
Temperature
Mean Temperature °F / °C 27°F / -3°C  
Max Temperature 36°F / 2°C 34°F / 1°C 54°F / 12°C (2002)
Min Temperature 23°F / -5°C 21°F / -6°C -7°F / -21°C (1974)
Degree Days
Heating Degree Days 35 38  
Month to date heating degree days 305 305  
Since 1 July heating degree days 2560 2891  
Cooling Degree Days 0 0  
Month to date cooling degree days 0 0  
Year to date cooling degree days 0 0  
Moisture
Dew Point 32°F / 0°C   
Average Humidity 88    
Maximum Humidity 100    
Minimum Humidity 75    
Precipitation
Precipitation 0.13 in / 3.30 cm 0.03 in / 0.76 cm 0.45 in / 1.14 cm (1993)
Month to date precipitation 0.18 0.27  
Year to date precipitation 0.18 0.27  
Wind
Wind Speed 5 mph / 7 km/h   
Max Wind Speed 25 mph / 40 km/h   
Max Gust Speed 31 mph / 50 km/h   
Visibility 4 miles / 6 kilometers   
Events Fog , Rain   

Key: T is trace of precipitation, MM is missing value
Source: NWS Daily Summary
Time(PST)TemperatureDew PointHumidity Pressure Visibility Wind DirectionWind SpeedGust SpeedPrecipitationEvents Conditions
12:53 AM 26.1°F / -3.3°C 23.0°F / -5.0°C 88% 30.09 in / 1018.8 hPa 10.0 miles / 16.1 kilometers South 8.1 mph / 13.0 km/h - N/A   Clear
1:53 AM 25.0°F / -3.9°C 23.0°F / -5.0°C 92% 30.11 in / 1019.5 hPa 10.0 miles / 16.1 kilometers Calm Calm - N/A   Clear
2:53 AM 32.0°F / 0.0°C 28.0°F / -2.2°C 85% 30.12 in / 1019.7 hPa 10.0 miles / 16.1 kilometers WSW 9.2 mph / 14.8 km/h - N/A   Clear
3:53 AM 30.9°F / -0.6°C 27.0°F / -2.8°C 85% 30.11 in / 1019.5 hPa 10.0 miles / 16.1 kilometers NW 3.5 mph / 5.6 km/h - N/A   Clear
4:53 AM 33.1°F / 0.6°C 28.0°F / -2.2°C 82% 30.10 in / 1019.1 hPa 10.0 miles / 16.1 kilometers WSW 5.8 mph / 9.3 km/h - N/A   Overcast
6:53 AM 32.0°F / 0.0°C 28.0°F / -2.2°C 85% 30.11 in / 1019.6 hPa 10.0 miles / 16.1 kilometers Calm Calm - N/A   Overcast
7:53 AM 36.0°F / 2.2°C 28.9°F / -1.7°C 76% 30.12 in / 1020.0 hPa 10.0 miles / 16.1 kilometers North 3.5 mph / 5.6 km/h - N/A   Overcast
8:53 AM 34.0°F / 1.1°C 30.0°F / -1.1°C 85% 30.13 in / 1020.3 hPa 10.0 miles / 16.1 kilometers NNE 5.8 mph / 9.3 km/h - 0.00 in / 0.0 cm Rain Light Rain
9:01 AM 33.8°F / 1.0°C 30.2°F / -1.0°C 87% 30.10 in / 1019.2 hPa 8.0 miles / 12.9 kilometers North 6.9 mph / 11.1 km/h - 0.00 in / 0.0 cm Rain Light Rain
9:53 AM 34.0°F / 1.1°C 30.9°F / -0.6°C 89% 30.14 in / 1020.5 hPa 5.0 miles / 8.0 kilometers North 4.6 mph / 7.4 km/h - 0.05 in / 1.3 cm Rain Light Rain
10:17 AM 33.8°F / 1.0°C 30.2°F / -1.0°C 87% 30.09 in / 1018.8 hPa 5.0 miles / 8.0 kilometers North 9.2 mph / 14.8 km/h 31.1 mph / 50.0 km/h 0.02 in / 0.5 cm Rain Light Rain
10:42 AM 33.8°F / 1.0°C 32.0°F / 0.0°C 93% 30.09 in / 1018.8 hPa 3.0 miles / 4.8 kilometers North 6.9 mph / 11.1 km/h - 0.04 in / 1.0 cm Rain Rain
10:53 AM 34.0°F / 1.1°C 32.0°F / 0.0°C 92% 30.11 in / 1019.6 hPa 3.0 miles / 4.8 kilometers North 6.9 mph / 11.1 km/h - 0.06 in / 1.5 cm Rain Rain
11:04 AM 33.8°F / 1.0°C 33.8°F / 1.0°C 100% 30.06 in / 1017.8 hPa 4.0 miles / 6.4 kilometers NNE 8.1 mph / 13.0 km/h - 0.02 in / 0.5 cm Rain Light Rain
11:53 AM 34.0°F / 1.1°C 32.0°F / 0.0°C 92% 30.07 in / 1018.1 hPa 9.0 miles / 14.5 kilometers North 6.9 mph / 11.1 km/h - 0.02 in / 0.5 cm   Overcast
12:53 PM 34.0°F / 1.1°C 33.1°F / 0.6°C 96% 30.04 in / 1017.1 hPa 5.0 miles / 8.0 kilometers North 6.9 mph / 11.1 km/h - N/A   Overcast
1:26 PM 33.8°F / 1.0°C 33.8°F / 1.0°C 100% 29.98 in / 1015.1 hPa 4.0 miles / 6.4 kilometers Calm Calm - N/A   Overcast
1:53 PM 34.0°F / 1.1°C 33.1°F / 0.6°C 96% 30.02 in / 1016.5 hPa 2.0 miles / 3.2 kilometers North 3.5 mph / 5.6 km/h - N/A   Overcast
2:02 PM 33.8°F / 1.0°C 33.8°F / 1.0°C 100% 29.98 in / 1015.1 hPa 1.5 miles / 2.4 kilometers North 3.5 mph / 5.6 km/h - N/A   Overcast
2:31 PM 35.6°F / 2.0°C 33.8°F / 1.0°C 93% 29.96 in / 1014.4 hPa 2.0 miles / 3.2 kilometers North 3.5 mph / 5.6 km/h - N/A   Overcast
2:53 PM 34.0°F / 1.1°C 33.1°F / 0.6°C 96% 29.99 in / 1015.6 hPa 2.0 miles / 3.2 kilometers North 4.6 mph / 7.4 km/h - N/A   Overcast
3:02 PM 33.8°F / 1.0°C 33.8°F / 1.0°C 100% 29.95 in / 1014.1 hPa 2.0 miles / 3.2 kilometers North 4.6 mph / 7.4 km/h - N/A   Overcast
3:30 PM 33.8°F / 1.0°C 33.8°F / 1.0°C 100% 29.94 in / 1013.8 hPa 3.0 miles / 4.8 kilometers NNE 3.5 mph / 5.6 km/h - N/A   Overcast
3:53 PM 34.0°F / 1.1°C 33.1°F / 0.6°C 96% 29.98 in / 1015.2 hPa 2.5 miles / 4.0 kilometers Calm Calm - N/A   Overcast
4:10 PM 33.8°F / 1.0°C 33.8°F / 1.0°C 100% 29.93 in / 1013.4 hPa 1.5 miles / 2.4 kilometers Calm Calm - N/A   Overcast
4:24 PM 33.8°F / 1.0°C 33.8°F / 1.0°C 100% 29.92 in / 1013.1 hPa 0.5 miles / 0.8 kilometers Calm Calm - N/A Fog Fog
4:33 PM 33.8°F / 1.0°C 33.8°F / 1.0°C 100% 29.91 in / 1012.8 hPa 0.2 miles / 0.4 kilometers Calm Calm - N/A Fog Fog
4:49 PM 33.8°F / 1.0°C 33.8°F / 1.0°C 100% 29.90 in / 1012.4 hPa 0.5 miles / 0.8 kilometers Calm Calm - N/A Fog Fog
4:53 PM 34.0°F / 1.1°C 33.1°F / 0.6°C 96% 29.94 in / 1013.8 hPa 0.5 miles / 0.8 kilometers Calm Calm - N/A Fog Fog
5:12 PM 33.8°F / 1.0°C 33.8°F / 1.0°C 100% 29.89 in / 1012.1 hPa 0.2 miles / 0.4 kilometers Calm Calm - N/A Fog Fog
5:53 PM 33.1°F / 0.6°C 33.1°F / 0.6°C 100% 29.91 in / 1012.6 hPa 0.2 miles / 0.4 kilometers Calm Calm - N/A Fog Fog
6:53 PM 34.0°F / 1.1°C 33.1°F / 0.6°C 96% 29.86 in / 1011.2 hPa 0.2 miles / 0.4 kilometers SW 6.9 mph / 11.1 km/h - N/A Fog Fog
7:53 PM 34.0°F / 1.1°C 34.0°F / 1.1°C 100% 29.86 in / 1011.0 hPa 0.2 miles / 0.4 kilometers SSW 5.8 mph / 9.3 km/h - N/A Fog Fog
8:17 PM 33.8°F / 1.0°C 33.8°F / 1.0°C 100% 29.82 in / 1009.7 hPa 0.2 miles / 0.4 kilometers SW 6.9 mph / 11.1 km/h - N/A Fog Fog
9:02 PM 33.8°F / 1.0°C 33.8°F / 1.0°C 100% 29.80 in / 1009.0 hPa 2.0 miles / 3.2 kilometers South 5.8 mph / 9.3 km/h - N/A   Mostly Cloudy
9:09 PM 35.6°F / 2.0°C 33.8°F / 1.0°C 93% 29.80 in / 1009.0 hPa 9.0 miles / 14.5 kilometers SSW 9.2 mph / 14.8 km/h - N/A   Scattered Clouds
9:47 PM 33.8°F / 1.0°C 33.8°F / 1.0°C 100% 29.79 in / 1008.7 hPa 6.0 miles / 9.7 kilometers South 3.5 mph / 5.6 km/h - N/A   Mostly Cloudy
9:53 PM 34.0°F / 1.1°C 33.1°F / 0.6°C 96% 29.83 in / 1010.1 hPa 5.0 miles / 8.0 kilometers South 3.5 mph / 5.6 km/h - N/A   Mostly Cloudy
10:19 PM 33.8°F / 1.0°C 33.8°F / 1.0°C 100% 29.79 in / 1008.7 hPa 1.5 miles / 2.4 kilometers Calm Calm - N/A   Mostly Cloudy
10:28 PM 33.8°F / 1.0°C 33.8°F / 1.0°C 100% 29.79 in / 1008.7 hPa 0.5 miles / 0.8 kilometers South 3.5 mph / 5.6 km/h - N/A Fog Fog
10:35 PM 33.8°F / 1.0°C 33.8°F / 1.0°C 100% 29.79 in / 1008.7 hPa 0.2 miles / 0.4 kilometers SW 3.5 mph / 5.6 km/h - N/A Fog Fog
10:53 PM 33.1°F / 0.6°C 32.0°F / 0.0°C 96% 29.82 in / 1009.8 hPa 0.2 miles / 0.4 kilometers SSW 4.6 mph / 7.4 km/h - N/A Fog Fog
11:05 PM 32.0°F / 0.0°C 32.0°F / 0.0°C 100% 29.78 in / 1008.4 hPa 0.5 miles / 0.8 kilometers Calm Calm - N/A Fog Fog
11:12 PM 32.0°F / 0.0°C 30.2°F / -1.0°C 93% 29.77 in / 1008.0 hPa 0.5 miles / 0.8 kilometers Calm Calm - N/A Fog Fog
11:20 PM 33.8°F / 1.0°C 32.0°F / 0.0°C 93% 29.77 in / 1008.0 hPa 1.2 miles / 2.0 kilometers Calm Calm - N/A   Scattered Clouds
11:53 PM 35.1°F / 1.7°C 34.0°F / 1.1°C 96% 29.80 in / 1008.9 hPa 10.0 miles / 16.1 kilometers SSW 10.4 mph / 16.7 km/h - N/A   Clear
Moon Phase
Jan. 08 Jan. 11 Jan. 18 Jan. 26 Feb. 03
Sunrise:07:43 AM (PST) Moon Rise:04:21 AM (PST)1/8
Sunset:04:26 PM (PST) Moon Set:01:33 PM (PST)1/8

Copyright © 2014 The Weather Underground, Inc.